Location: �chenoz-la-M�line
(47.6009°N, 6.1354°E)
Time: 04:47:27
(UTC+00:00)

Atlas Centaur 2 - Pass Details

Date: 27 January 2021
Orbit: 459 x 1309 km, 30.4° (Epoch: 27 February)

Event Time Altitude Azimuth Distance (km) Brightness Sun altitude
Exits shadow 04:26:51 18° 197° (SSW) 2,404 4.3 -27.1°
Maximum altitude 04:28:19 19° 182° (S) 2,393 4.5 -26.9°
Drops below altitude 10° 04:33:33 10° 141° (SE) 3,179 5.6 -26.0°
Sets 04:37:32 0° 126° (SE) 4,231 6.6 -25.3°
